weather.gov     
National Weather Service

Regional Weather Roundup
NWS Homepage
This page is being discontinued on March 12, 2014.
The same data is available at this site. Please update your bookmarks.
Thank you, and we apologize for the inconvenience.
Please send an email to SR-SRH.Webmaster@noaa.gov with any concerns.


Current Version
Previous Version:    01  02  03  04  05  06  07  08  09  10  11  12  13  14  15  16  17  18  19  20  21  22  23  24  25  26  
[Printable]
909
ASUS41 KAKQ 171510
RWRAKQ

REGIONAL WEATHER ROUNDUP
NATIONAL WEATHER SERVICE WAKEFIELD VA
1100 AM EDT THU APR 17 2014

Note: "fair" indicates few or no clouds below 12,000 feet with no
significant weather and/or obstructions to visibility. * = Denotes
station may not report precipitation (e.g., rain,snow,etc.),
thunder or fog.

VAZ042-051-052>054-056-171600-
NORTHERN VIRGINIA

CITY           SKY/WX    TMP DP  RH WIND       PRES   REMARKS
WASH NATIONAL  PTSUNNY   50  30  46 E12       30.67S
DULLES         PTSUNNY   48  26  42 E12G20    30.64S
FORT BELVOIR   SUNNY     50  30  46 VRB6      30.66S
QUANTICO       MOSUNNY   49  31  49 E7        30.66F
FREDERICKSBRG* SUNNY     50  30  46 E10G17    30.64S
STAFFORD*      SUNNY     51  33  52 E14       30.69R
WARRENTON      SUNNY     50  35  56 E7        30.64R
CULPEPER*      MOSUNNY   52  27  37 NE6       30.65S
MANASSAS*      SUNNY     48  28  46 SE10      30.65S
LEESBURG*      SUNNY     48  30  49 E9        30.65F
WINCHESTER     SUNNY     45  30  57 SE10      30.62S
$$

VAZ048-049-060>072-079>083-171600-
CENTRAL AND SOUTH CENTRAL VIRGINIA...AND NORTH CENTRAL NORTH CAROLINA

CITY           SKY/WX    TMP DP  RH WIND       PRES   REMARKS
RICHMOND       PTSUNNY   51  30  44 NE10      30.62R
CHESTERFIELD*  NOT AVBL
HANOVER        SUNNY     50  30  46 NE8       30.63S
TAPPAHANNOCK*  SUNNY     51  29  43 E9G17     30.64R
CHARLOTTSVILLE SUNNY     47  26  44 VRB5      30.62R
ORANGE*        SUNNY     48  27  43 NE6       30.64S
LOUISA*        SUNNY     48  28  46 E5        30.61S
FARMVILLE*     SUNNY     52  25  35 NE12      30.59S
SOUTH HILL*    SUNNY     50  30  46 NE6       30.64R
ROANOKE RAPIDS SUNNY     52  37  58 NE6       30.58R
RALEIGH        PTSUNNY   49  31  49 E10       30.56S
$$

VAZ088>098-171600-
SOUTHEAST VIRGINIA

CITY           SKY/WX    TMP DP  RH WIND       PRES   REMARKS
NORFOLK        SUNNY     50  38  63 NE17G23   30.59R
VIRGINIA BEACH PTSUNNY   51  38  60 NE16G26   30.59R
NORFOLK NAVAL  PTSUNNY   52  38  58 NE17G25   30.62R
WEST POINT*    SUNNY     53  32  45 E10G21    30.64R
NEWPORT NEWS   MOSUNNY   53  37  54 NE15G23   30.61R
LANGLEY AFB    MOSUNNY   50  38  63 E17       30.61R
FORT EUSTIS    SUNNY     52  40  64 E14       30.59R
WILLIAMSBURG*  SUNNY     55  39  54 E7        30.62R
FRANKLIN*      SUNNY     54  39  58 NE16      30.59R
WAKEFIELD      SUNNY     52  35  52 VRB6      30.60R
$$

VAZ020-022-025-037-045-171600-
WESTERN AND SOUTHWEST VIRGINIA

CITY           SKY/WX    TMP DP  RH WIND       PRES   REMARKS
STAUNTON*      SUNNY     43  23  45 CALM      30.61R
HOT SPRINGS VA FLURRIES  36  18  48 SE7       30.52S
LYNCHBURG      SUNNY     50  27  40 NE9       30.60S
DANVILLE       MOSUNNY   48  27  44 NE14      30.59S
MARTINSVILLE   SUNNY     48  28  46 NE9       30.60S
ROANOKE        MOSUNNY   44  22  41 SE8       30.59F
BLACKSBURG     SUNNY     45  27  49 E8        30.55S
DUBLIN*        SUNNY     42  24  47 E3        30.54S
MARION*        MOSUNNY   44  21  41 E10       30.51S
HILLSVILLE*    SUNNY     43  18  36 CALM      30.52S
RICHLANDS*     SUNNY     51  21  30 SE3       30.45R
WISE*          SUNNY     50  19  29 SE5       30.44R
ABINGDON*      MOSUNNY   50  24  36 E13       30.45S
$$

MDZ021>025-VAZ099-100-171600-
SOUTHERN MARYLAND AND THE DELMARVA PENINSULA

CITY           SKY/WX    TMP DP  RH WIND       PRES   REMARKS
PATUXENT RIVER MOSUNNY   47  31  53 E13       30.66R
BAY BRIDGE APT CLOUDY    46  32  57 E9        30.68R
LEONARDTOWN    PTSUNNY   45  30  57 NE9G21    30.67R
DOVER          CLOUDY    46  32  59 E16G23    30.65R
GEORGETOWN     PTSUNNY   48  31  51 E15G22    30.68R
EASTON         PTSUNNY   48  34  57 E12       30.70S
CAMBRIDGE      PTSUNNY   48  32  53 E13       30.66S
SALISBURY        N/A    N/A N/A N/A NE16      30.66S
OCEAN CITY     CLOUDY    46  32  58 E13       30.67R
WALLOPS ISLAND PTSUNNY   50  34  54 E18       30.65S
ACCOMACK*      SUNNY     48  32  53 NE15G21   30.62S
$$

NCZ012>017-030>032-171600-
EASTERN NORTH CAROLINA

CITY           SKY/WX    TMP DP  RH WIND       PRES   REMARKS
ELIZABETH CITY MOSUNNY   53  40  61 NE21G26   30.56R
AHOSKIE*       SUNNY     51  38  61 NE10      30.57S
EDENTON*       MOSUNNY   54  41  62 NE13G18   30.55S
CURRITUCK*     MOSUNNY   52  37  56 NE16G26   30.57S
KILL DEVIL HLS CLOUDY    50  40  68 N14G22    30.52S
MANTEO         PTSUNNY   50  39  65 NE25G33   30.53R
CAPE HATTERAS  CLOUDY    54  45  71 N14G32    30.48R
GOLDSBORO      MOSUNNY   51  38  60 NE13      30.51S
WASHINGTON     MOSUNNY   54  43  66 NE8       30.54R
GREENVILLE     MOSUNNY   52  39  62 NE12      30.54S
NEW BERN       MOSUNNY   57  43  59 N12G20    30.52S
WILMINGTON     MOSUNNY   59  41  51 N13       30.48R
$$

VAZ048-171600-
ELSEWHERE

CITY           SKY/WX    TMP DP  RH WIND       PRES   REMARKS
HARRISBURG PA  SUNNY     48  28  46 SE12      30.66F
BALTIMORE      MOSUNNY   46  30  53 E12G20    30.67R
ANNAPOLIS      PTSUNNY   46  34  62 E13       30.68R
ANDREWS AFB    SUNNY     48  31  51 E12       30.65S
WILMINGTON DE  PTSUNNY   46  29  51 SE10G17   30.70R
PHILADELPHIA   MOSUNNY   48  28  46 E9        30.71S
WILDWOOD NJ*   CLOUDY    45  28  53 E15G22    30.70R
ATLANTIC CITY  CLOUDY    45  30  55 E16G26    30.70R
HENDERSON NC   MOSUNNY   48  29  48 NE9       30.58R
GREENSBORO     CLOUDY    48  27  44 NE12      30.55S
ROCKY MOUNT      N/A    N/A N/A N/A MISG      30.56S
FAYETTEVILLE   MOSUNNY   52  33  48 NE14      30.52R
CHARLOTTE      MOSUNNY   50  28  42 NE12G20   30.54S
$$

VAZ100-171600-
MARINE

STATION/POSITION TIME  TEMP    WIND        PRES    WAVE   SWELL
                       AIR SEA DIR/SP/G            HT/PER HT/PER
                 (UTC) (F)     (DEG/KT/KT) (MB)    (FT/S) (FT/S)
44066 TX TWR #4  1500   41 45   60/ 21/ 25 1038.1R  10/ 7
CAPE MAY NJ      1500   44 52   90/ 11/ 16 1038.7S
LEWES DE         1500   43 48  100/ 18/ 21 1038.3R
15NM E FENWICK I 1500   43 45              1038.1R   7/ 6
OCEAN-CITY-INLET 1500   44 44   80/  9/ 13 1038.2S
WACHAPREAGUE VA  1500   46 51   50/ 20/ 28 1036.5F
THOMAS POINT MD  1500   45 52  100/ 12/ 14 1039.1R
GOOSES REEF MD   1500   45     130/ 12/ 16 1039.9S
COVE POINT MD    1500   44     130/ 12/ 15 1038.1R
SOLOMONS ISLAND  1500      52                N/A
BISHOPS HEAD MD  1500   46 51   60/ 12/ 16 1037.6S
PINEY POINT MD   1500          120/ 13/ 16   N/A
POTOMAC MD       1500   45     100/ 14/ 17 1037.1R
CAMBRIDGE MD     1500   45 55   70/ 11/ 17 1037.9S
LEWISETTA VA     1500   45 52   90/ 15/ 18 1037.5S
RAPPAHANNOCK LGT 1500           40/ 19/ 21 1036.8F
STINGRAY PT      1500   46      70/ 17/ 19 1036.5S
YORK RVR RNG VA  1500   47      60/ 18/ 21 1035.6R
YORKTOWN VA      1500   47 54   60/ 16/ 20 1036.3R
JAMESTOWN VA     1500   48      80/ 10/ 17   N/A
DOMINION TERM VA 1500   49      70/ 10/ 16 1036.2R
KIPTOPEKE VA     1500      52   60/ 16/ 24   N/A
CHES BAY BRIDGE  1500   46 50   30/ 23/ 27 1035.4R
CAPE HENRY VA    1500   46      40/ 22/ 25   N/A
CHESAPEAKE LGHT  1400   45      50/ 30/ 34 1034.6R
WILLOUBY STN VA  1500   47      50/ 16/ 18 1035.3R
S CRANEY ISL VA  1500           20/ 13/ 21 1036.1R
CAPE HENRY BUOY  1500      46                N/A     8/ 6   2/11
1ST LANDING BUOY 1500      46                N/A     7/ 6   3/ 9
64NM E OF VA BCH 1500   50 54   20/ 25/ 31 1032.7R  10/10   5/10
DUCK PIER NC     1500   47 49   30/ 25/ 31 1033.0S
44100 DUCK FRF   1500      47                N/A     9/ 7   2/11
44056 DUCK FRF   1500      48                N/A     8/ 6   2/11
OREGON INLET NC  1500   50 49  360/ 16/ 23 1033.2R
HATTERAS NC      1500   51 53   10/ 27/ 32 1032.1R
CAPE LOOKOUT NC  1500   54      20/ 20/ 23 1031.8R
FRYING PAN SHLS  1500   57 63   50/ 23/ 27 1029.6R   8/ 7   3/ 9
$$




U.S. Dept. of Commerce
NOAA National Weather Service
1325 East West Highway
Silver Spring, MD 20910
E-mail: w-nws.webmaster@noaa.gov
Page last modified: May 16, 2007
NATIONAL WEATHER SERVICE: for Safety, for Work, for Fun - FOR LIFE